Laramie, WY

3:11 PM MDT on April 26, 2017 (GMT -0600)
Laramie Regional

Weather History for KLAR - September, 2013

Change the Weather History Date:

Sunday, September 1, 2013

  Actual Average Record
Temperature  
Mean Temperature 66 °F 59 °F  
Max Temperature 79 °F 74 °F 87 °F (1954)
Min Temperature 52 °F 43 °F 30 °F (1965)
Degree Days  
Heating Degree Days 0 6  
Month to date heating degree days 0 6  
Since 1 July heating degree days 71 178  
Cooling Degree Days 1 0  
Month to date cooling degree days 1 0  
Year to date cooling degree days 139 66  
Growing Degree Days 16 (Base 50)    
Moisture  
Dew Point 50 °F    
Average Humidity 59    
Maximum Humidity 83    
Minimum Humidity 35    
Precipitation  
Precipitation 0.00 in 0.04 in 0.52 in (1970)
Month to date precipitation 0.00 0.04  
Year to date precipitation 6.33 8.19  
Sea Level Pressure  
Sea Level Pressure 29.97 in    
Wind  
Wind Speed 15 mph (SSE)    
Max Wind Speed 24 mph    
Max Gust Speed 30 mph    
Visibility 10 miles    
Events      
T = Trace of Precipitation, MM = Missing Value Source: NWS Daily Summary

Daily Weather History Graph

Daily Weather History Graph

Search for Another Location

Airport or City:

Trip Planner

Search our weather history database for the weather conditions in past years. The results will help you decide how hot, cold, wet, or windy it might be!

Date:

Astronomy

Sep. 01, 2013 Rise Set
Actual Time 6:29 AM MDT 7:35 PM MDT
Civil Twilight 6:00 AM MDT 8:03 PM MDT
Nautical Twilight 5:27 AM MDT 8:37 PM MDT
Astronomical Twilight 4:51 AM MDT 9:12 PM MDT
Moon 2:52 AM MDT (9/1) 5:15 PM MDT (9/1)
Length of Visible Light 14h 02m
Length of Day
13h 05m
Waning Crescent, 13% of the Moon is Illuminated
Sep 1
Waning Crescent
Sep 5
New
Sep 12
First Quarter
Sep 19
Full
Sep 26
Last Quarter

Hourly Weather History & Observations

Time (MDT) Temp. Dew Point Humidity Pressure Visibility Wind Dir Wind Speed Gust Speed Precip Events Conditions
12:53 AM 55.0 °F 48.0 °F 77% 29.97 in 10.0 mi SSE 9.2 mph - N/A   Clear
1:53 AM 54.0 °F 46.9 °F 77% 29.99 in 10.0 mi ESE 5.8 mph - N/A   Clear
2:53 AM 55.0 °F 46.9 °F 74% 29.98 in 10.0 mi SSE 12.7 mph - N/A   Clear
3:53 AM 53.1 °F 46.0 °F 77% 29.98 in 10.0 mi South 10.4 mph - N/A   Clear
4:53 AM 52.0 °F 46.0 °F 80% 29.97 in 10.0 mi South 11.5 mph - N/A   Clear
5:53 AM 53.1 °F 46.0 °F 77% 30.00 in 10.0 mi South 12.7 mph - N/A   Clear
6:53 AM 53.1 °F 46.0 °F 77% 30.01 in 10.0 mi South 9.2 mph - N/A   Clear
7:53 AM 57.9 °F 48.0 °F 70% 30.03 in 10.0 mi SSE 13.8 mph - N/A   Clear
8:53 AM 62.1 °F 48.9 °F 62% 30.01 in 10.0 mi SSE 20.7 mph - N/A   Clear
9:53 AM 66.9 °F 50.0 °F 54% 30.01 in 10.0 mi SSE 17.3 mph - N/A   Clear
10:53 AM 71.1 °F 48.9 °F 45% 29.99 in 10.0 mi SSE 17.3 mph 24.2 mph N/A   Clear
11:53 AM 73.9 °F 48.0 °F 40% 29.97 in 10.0 mi SSE 12.7 mph 21.9 mph N/A   Clear
12:53 PM 77.0 °F 48.0 °F 36% 29.96 in 10.0 mi SSE 13.8 mph 19.6 mph N/A   Clear
1:53 PM 78.1 °F 48.0 °F 35% 29.94 in 10.0 mi SSE 15.0 mph 20.7 mph N/A   Clear
2:53 PM 79.0 °F 48.0 °F 34% 29.92 in 10.0 mi SSE 17.3 mph 25.3 mph N/A   Clear
3:53 PM 77.0 °F 50.0 °F 39% 29.92 in 10.0 mi SSE 21.9 mph 28.8 mph N/A   Clear
4:53 PM 75.9 °F 51.1 °F 42% 29.93 in 10.0 mi SSE 20.7 mph - N/A   Clear
5:53 PM 73.0 °F 54.0 °F 51% 29.96 in 10.0 mi SSE 19.6 mph - N/A   Clear
6:53 PM 70.0 °F 55.0 °F 59% 29.96 in 10.0 mi SE 16.1 mph - N/A   Scattered Clouds
7:53 PM 64.9 °F 54.0 °F 68% 29.96 in 10.0 mi SSE 16.1 mph - N/A   Clear
8:53 PM 62.1 °F 54.0 °F 75% 29.98 in 10.0 mi SSE 15.0 mph - N/A   Clear
9:53 PM 61.0 °F 54.0 °F 78% 29.96 in 9.0 mi SSE 15.0 mph - N/A   Clear
10:53 PM 59.0 °F 54.0 °F 83% 29.96 in 8.0 mi SSE 13.8 mph - N/A   Clear
11:53 PM 59.0 °F 53.1 °F 81% 29.94 in 9.0 mi SSE 12.7 mph - N/A   Clear